SCP
0 0 0 0 0 0 0 0 0 0 0 0 1 1 2 3 4 6 7 8 8 8 8 9 9 8 7 6 6 6 5 5 3 3 2 2 2 2 2 2 1 1 1 1
0 0 0 0 0 0 0 0 0 0 0 0 1 1 2 2 4 6 8 8 9 9 8 8 8 7 6 6 6 6 6 5 4 3 2 2 2 2 2 2 1 1 1 1
0 0 0 0 0 0 0 0 0 0 0 0 1 1 1 2 3 6 8 9 9 8 8 7 7 7 6 6 6 6 6 6 5 3 3 2 2 2 2 2 1 1 1 1
0 0 0 0 0 0 0 0 0 0 0 0 0 1 1 2 3 5 7 8 8 7 7 6 6 6 7 6 6 6 6 7 6 4 3 3 3 2 2 2 1 1 1 1
0 0 0 0 0 0 0 0 0 0 0 0 0 0 1 2 3 5 6 7 8 7 7 6 6 6 6 6 6 6 7 7 6 4 3 3 2 2 2 1 1 1 1 1
0 0 0 0 0 0 0 0 0 0 0 0 0 0 1 2 3 4 5 6 8 8 8 8 8 7 6 6 7 7 7 8 7 5 4 3 2 1 1 1 1 1 1 1
0 0 0 0 0 0 0 0 0 0 0 0 0 0 1 2 4 4 4 6 8 10 11 10 9 7 6 6 7 8 8 8 7 6 5 3 2 1 1 1 1 1 1 1
0 0 0 0 0 0 0 0 0 0 0 0 0 1 2 3 4 4 4 6 8 9 10 9 7 6 5 6 7 8 8 8 8 6 5 3 2 1 1 1 1 1 1 1
0 0 0 0 0 0 0 0 0 0 0 0 0 1 2 3 4 4 5 6 6 6 6 5 5 5 4 5 7 8 8 8 7 6 4 3 2 1 1 1 1 1 1 1
0 0 0 0 0 0 0 0 0 0 0 0 0 1 2 3 4 4 5 5 5 3 3 3 3 3 4 5 6 7 7 7 6 5 4 3 2 2 1 1 1 1 1 1
0 0 0 0 0 0 0 0 0 0 0 0 0 0 1 2 3 4 4 4 4 3 3 3 3 3 3 4 5 6 6 6 5 4 3 3 2 2 1 1 1 1 1 1
0 0 0 0 0 0 0 0 0 0 0 0 0 0 1 2 3 4 4 3 3 3 4 4 3 3 3 3 4 5 5 5 4 3 3 2 2 2 1 1 1 1 1 1
0 0 0 0 0 0 0 0 0 0 0 0 0 1 1 3 4 4 4 3 3 4 5 5 4 3 3 3 3 4 4 4 3 3 3 2 2 2 1 1 1 1 1 1
0 0 0 0 0 0 0 0 0 0 0 0 0 1 2 3 4 5 4 4 5 5 5 5 4 4 3 3 3 3 4 4 3 3 4 4 3 2 2 2 2 1 1 1
0 0 0 0 0 0 0 0 0 0 0 0 1 2 2 3 4 6 5 5 6 7 5 5 4 4 4 4 4 4 4 4 3 3 4 5 4 3 2 2 2 1 1 1
0 0 0 0 0 0 0 0 1 1 1 1 1 2 3 5 7 8 6 6 7 7 6 5 5 5 5 5 5 4 3 3 3 3 4 5 4 3 2 2 1 1 1 1
0 0 0 0 0 0 0 1 1 2 3 3 3 3 4 8 11 10 7 6 7 7 7 6 5 5 5 5 4 3 2 2 2 2 3 3 3 3 2 2 1 1 1 1
0 0 0 0 0 0 0 1 2 4 5 5 5 5 6 9 12 11 8 7 7 7 7 6 6 5 5 4 3 2 2 2 1 1 1 2 2 3 3 2 2 1 1 1
0 0 0 0 0 0 1 1 3 5 7 8 8 7 7 8 10 9 8 8 8 8 8 8 7 5 4 4 4 3 2 2 2 1 1 2 2 3 3 3 2 1 1 1
1 1 1 0 0 1 2 2 3 4 7 9 9 9 9 9 9 8 7 8 9 9 9 9 8 6 5 4 4 3 3 2 2 2 1 1 2 3 3 2 1 0 0 0
1 1 1 1 1 1 2 3 2 3 6 8 9 10 10 9 8 6 7 8 10 10 11 10 8 6 5 5 4 4 3 3 2 2 2 1 2 2 2 1 1 0 0 0
1 1 1 1 1 2 2 2 2 3 4 7 10 11 11 10 8 6 7 9 11 12 12 11 8 6 5 5 5 5 4 4 3 2 2 1 1 1 1 1 1 1 1 1
1 1 1 2 2 2 2 3 4 4 5 7 9 11 10 10 8 7 7 9 11 12 12 10 8 5 4 5 6 6 5 4 3 2 2 2 1 1 1 1 1 1 1 1
2 2 2 3 3 3 5 6 7 7 7 8 8 9 9 10 10 8 8 8 8 9 9 8 6 5 4 4 5 4 4 3 3 3 2 2 1 1 1 1 1 1 1 1
3 2 2 3 3 5 7 8 8 9 9 9 8 8 9 11 10 9 8 7 7 6 6 6 5 4 3 4 4 4 4 4 4 3 3 2 1 1 1 1 1 1 1 1
2 2 2 3 4 5 6 7 8 10 10 9 7 8 9 11 10 9 8 7 6 5 5 5 4 3 3 3 4 4 4 4 5 4 3 2 1 1 1 1 1 1 1 1
Wind_Speed
1 2 4 8 7 8 5 4 4 5 3 3 4 4 6 8 10 10 9 10 10 9 8 10 11 12 11 10 10 9 9 8 6 4 3 3 3 3 3 3 5 5 5 6
4 5 11 8 7 5 4 3 4 4 2 3 3 2 3 6 10 12 13 12 11 9 7 8 9 10 10 10 10 9 9 8 7 5 4 3 3 3 3 3 4 5 5 5
6 9 5 5 7 5 3 2 3 3 4 5 5 4 2 1 3 6 10 10 12 14 13 11 10 10 10 11 11 10 8 8 7 6 4 3 2 1 1 2 2 4 5 5
7 9 6 6 5 2 3 4 1 2 4 3 3 0 5 2 3 5 7 7 9 10 11 11 10 10 11 11 10 9 9 8 7 7 6 6 5 4 4 3 3 3 4 5
6 4 4 6 6 3 4 2 1 1 3 3 3 3 5 0 3 5 7 8 9 10 12 11 10 10 9 9 9 8 8 7 6 7 7 6 4 3 2 3 3 3 2 3
8 6 4 6 6 4 2 5 8 7 6 2 3 3 4 4 6 6 7 8 9 10 10 8 8 7 6 7 7 7 8 7 7 7 6 6 5 5 4 4 4 3 2 2
6 8 6 3 2 2 5 7 6 6 5 5 3 2 7 6 6 8 9 9 8 8 8 8 8 8 7 7 8 7 8 7 6 6 6 6 6 6 6 5 4 4 3 2
3 8 6 4 7 5 3 10 8 4 4 5 4 1 6 4 2 5 6 8 8 8 6 7 8 9 8 8 8 8 8 6 6 6 6 5 5 4 3 4 4 4 4 4
6 8 7 6 6 9 5 5 9 8 2 1 4 3 4 2 4 5 7 8 8 8 7 6 5 6 8 8 8 8 8 6 6 6 5 4 4 4 4 3 3 3 3 3
8 4 7 5 1 3 8 8 7 6 4 2 4 3 5 5 5 5 6 7 6 5 6 6 5 4 5 7 7 7 7 7 6 6 5 5 4 4 3 3 3 3 3 3
9 5 7 4 3 6 4 4 6 5 6 6 2 7 7 10 9 9 9 9 8 8 7 7 6 5 5 6 7 6 6 6 6 6 5 4 4 3 3 3 3 3 2 2
8 7 5 8 7 6 7 8 9 6 4 5 4 8 5 7 8 9 9 8 8 8 8 8 8 7 6 6 6 6 6 6 6 6 5 4 3 3 3 3 2 2 2 2
8 8 2 8 8 3 2 4 7 7 6 5 4 6 2 5 6 7 8 8 7 7 7 7 7 7 6 6 6 6 6 6 6 6 5 4 3 3 3 3 2 3 3 3
8 6 8 10 8 3 2 3 4 7 5 4 7 7 3 4 7 8 8 8 7 7 8 7 6 6 6 5 6 6 6 6 6 6 5 4 4 4 3 3 3 3 3 3
7 5 4 5 4 1 2 4 4 5 8 9 9 9 9 10 10 11 10 9 8 8 8 8 7 6 6 6 6 6 6 6 6 6 5 4 4 4 3 3 3 3 3 3
5 4 2 1 1 2 3 5 5 3 4 5 5 5 6 6 6 8 10 11 10 9 9 8 8 8 7 7 7 7 6 6 6 6 5 4 4 4 3 3 3 3 3 3
3 4 4 1 3 4 3 4 2 2 2 4 6 7 5 7 7 8 9 10 10 9 8 9 9 8 8 7 7 7 6 6 6 6 6 5 5 5 3 3 3 3 3 3
5 4 4 2 3 2 7 3 1 2 4 2 3 3 7 9 7 5 7 9 8 8 9 8 7 7 6 5 6 6 6 6 6 6 5 5 5 5 4 4 3 3 3 3
5 6 4 4 2 3 5 4 3 2 4 6 2 4 6 9 10 5 2 6 8 9 8 7 7 7 7 7 8 8 6 6 6 6 5 5 5 5 5 4 4 3 3 3
5 6 6 4 3 3 4 7 4 5 3 7 3 3 4 7 6 2 1 4 6 6 7 7 7 7 8 7 8 9 7 6 6 6 6 5 6 6 5 4 4 3 3 3
3 3 4 4 2 4 5 7 5 5 3 5 3 3 5 5 4 3 2 4 6 7 7 8 8 7 7 7 8 8 7 6 5 5 6 5 5 5 5 4 3 4 3 3
5 4 4 4 3 6 6 5 4 4 2 2 5 5 6 6 6 5 6 7 8 8 7 7 7 6 5 7 8 8 6 5 5 6 6 5 5 5 5 4 4 3 4 3
2 6 5 6 5 4 1 3 2 3 4 3 4 4 6 7 6 5 5 6 7 7 6 6 7 7 5 5 7 7 5 6 6 6 6 5 5 4 4 4 4 3 3 2
4 2 4 4 1 1 4 4 4 4 5 4 5 5 7 6 5 5 5 5 6 5 5 5 7 7 5 4 5 6 6 6 6 6 6 5 5 4 4 3 3 3 2 2
3 3 4 3 1 3 4 4 3 5 6 7 7 6 6 6 5 5 4 4 4 5 5 5 6 6 5 5 5 5 6 6 7 6 5 5 5 5 4 3 2 2 1 2
2 1 3 2 3 3 1 1 4 6 5 6 6 6 4 4 5 5 4 4 4 4 5 6 6 6 5 5 5 4 5 6 6 5 4 4 4 4 4 4 3 6 3 2
Wind_Direction
293 78 244 240 222 219 250 287 288 268 250 116 131 145 167 168 162 159 159 163 162 169 173 160 158 157 155 156 157 161 160 165 157 152 149 148 162 171 177 185 181 177 173 169
12 265 242 244 258 262 271 301 306 300 315 96 114 146 174 171 171 168 164 165 162 155 155 160 159 161 162 164 164 165 165 165 166 163 159 159 160 174 185 188 183 180 175 175
220 246 260 262 262 280 296 286 293 296 353 33 76 5 310 263 144 162 166 166 164 165 165 169 169 169 166 170 171 172 170 169 171 164 149 133 116 104 135 183 188 194 184 181
247 253 266 272 260 211 284 280 326 23 53 329 79 243 283 218 157 173 173 166 164 164 162 171 173 172 175 178 172 167 170 171 172 166 166 164 168 180 197 189 191 198 189 183
260 266 271 260 246 216 235 269 10 43 83 15 12 116 282 105 164 193 183 173 167 164 166 172 174 175 174 170 168 166 165 170 172 173 177 173 176 185 177 169 182 198 202 194
258 274 243 234 246 224 208 38 25 39 61 10 277 137 269 229 201 186 182 175 165 160 160 161 162 157 160 161 162 162 163 170 174 176 177 177 179 175 166 176 184 196 204 205
302 298 276 252 259 332 79 78 28 2 12 263 280 138 246 249 203 169 170 172 162 152 151 152 156 159 163 163 165 165 167 172 174 173 176 181 182 179 178 181 186 187 194 204
226 280 263 220 182 180 157 133 152 189 220 282 338 231 258 251 179 145 146 149 139 138 144 155 165 167 167 168 168 169 172 172 173 175 180 179 179 180 182 182 182 191 197 204
194 252 274 247 199 155 153 173 168 139 168 315 295 291 322 33 98 116 127 127 138 149 150 154 163 168 166 168 171 173 171 169 176 178 173 173 174 177 182 185 187 193 198 198
177 250 287 280 166 179 162 155 99 113 144 232 286 254 220 202 175 145 137 138 150 149 149 143 149 164 165 164 164 166 169 174 173 173 172 174 177 182 179 173 184 188 188 182
175 201 291 346 190 199 171 140 120 129 151 151 221 266 230 191 172 156 159 159 163 164 165 157 156 167 163 155 154 159 166 162 166 170 167 166 175 176 170 173 187 186 175 170
175 153 240 262 261 208 173 174 147 152 211 160 167 265 279 172 164 154 156 164 166 164 163 158 155 156 153 154 157 161 167 162 162 161 158 163 166 163 161 169 179 173 164 160
156 136 185 324 332 340 187 178 159 140 130 150 162 256 304 132 137 145 150 160 167 158 149 146 152 156 156 161 162 165 165 163 157 154 154 158 160 159 164 166 165 154 146 140
129 126 164 195 212 234 270 260 167 129 151 198 208 214 228 164 152 158 160 164 161 157 151 149 153 155 156 160 159 155 157 157 153 150 152 157 162 159 155 150 141 138 140 140
106 132 168 193 203 186 269 289 260 189 183 183 214 202 206 190 172 168 164 162 157 161 159 159 158 159 160 158 154 148 147 149 148 145 149 156 150 143 138 130 126 122 121 121
71 115 107 6 342 17 325 308 304 266 210 195 181 217 213 183 155 153 161 163 167 172 168 161 159 165 167 163 155 149 147 148 141 140 143 145 132 126 127 126 119 113 112 110
50 96 92 309 343 37 308 278 267 296 297 176 189 219 170 144 153 159 163 164 171 175 167 167 168 167 169 165 158 157 154 145 140 146 144 140 136 133 130 125 117 117 116 109
116 91 109 104 66 214 247 272 153 111 21 20 157 162 154 151 143 128 140 156 160 164 167 169 163 158 157 154 149 144 139 138 139 142 142 141 138 136 132 127 122 116 108 111
128 123 105 107 140 274 304 336 346 104 23 360 72 114 119 122 88 60 100 148 155 159 163 162 158 153 149 149 140 127 129 134 138 141 143 145 143 139 136 130 121 115 110 107
73 97 108 113 137 215 266 302 304 101 31 337 37 109 121 108 105 181 195 132 125 128 135 143 142 139 141 147 139 130 135 140 146 147 147 145 143 142 140 134 126 119 118 116
53 64 122 143 173 257 280 311 23 103 214 310 46 81 94 97 144 174 125 110 114 115 122 128 130 136 143 140 131 130 136 148 149 139 135 133 133 135 131 125 125 123 117 108
172 157 172 144 168 249 308 26 79 170 205 43 59 70 84 90 84 78 90 101 109 111 116 122 122 120 128 133 131 132 139 139 128 124 124 126 131 134 128 125 122 120 122 118
172 183 172 168 194 232 4 92 125 136 102 72 69 71 93 91 84 80 81 97 107 113 116 116 119 118 116 126 133 136 143 133 126 122 122 120 114 109 116 122 124 118 115 121
322 27 102 95 89 67 54 64 57 78 91 80 81 84 91 96 98 98 91 97 105 107 111 114 118 121 119 117 123 133 134 128 124 125 126 127 121 109 98 97 110 119 126 134
313 28 69 84 38 41 26 41 54 59 65 61 62 69 80 97 105 103 98 106 113 113 109 113 119 122 126 121 116 123 128 129 127 126 125 123 118 120 107 89 76 112 137 169
330 99 124 187 228 170 218 350 68 70 64 68 69 64 79 110 115 106 104 110 112 115 115 116 115 119 126 125 120 124 129 129 130 131 132 131 127 123 122 118 86 45 45 47